Overview Statistics Trail Chart Weather Telemetry Raw packets
 

This is the latest recevied weather packets stored in our database for station/object WA6OOO. If no packets are shown the sender has not sent any weather packets the latest 10 day(s).

<< 34 35 36 37 38 39 40 >>
Time Temp. Humidity Pressure Rain* Wind** Luminosity Snow
1788447540 18.89° C 83% 1017.6 hPa 0 mm - 117 W/m² -
1788447235 18.89° C 84% 1017.6 hPa 0 mm - 41 W/m² -
1788446934 18.33° C 85% 1017.6 hPa 0 mm - 55 W/m² -
1788446630 18.33° C 86% 1017.7 hPa 0 mm - 50 W/m² -
1788446324 17.78° C 87% 1017.5 hPa 0 mm - 52 W/m² -
1788446022 17.78° C 90% 1017.6 hPa 0 mm - 54 W/m² -
1788445721 17.22° C 91% 1017.4 hPa 0 mm - 46 W/m² -
1788445417 16.67° C 92% 1017.6 hPa 0 mm - 45 W/m² -
1788445113 16.67° C 93% 1017.4 hPa 0 mm - 39 W/m² -
1788444810 16.11° C 94% 1017.1 hPa 0 mm - 36 W/m² -
1788444510 16.11° C 94% 1017.4 hPa 0 mm - 30 W/m² -
1788444205 15.56° C 94% 1017.3 hPa 0 mm - 21 W/m² -
1788443900 15.56° C 95% 1017.4 hPa 0 mm - 19 W/m² -
1788443596 15.56° C 95% 1017.2 hPa 0 mm - 15 W/m² -
1788443294 16.11° C 95% 1017.3 hPa 0 mm - 10 W/m² -
1788442990 16.11° C 95% 1017.4 hPa 0 mm - 8 W/m² -
1788442688 16.11° C 95% 1017.2 hPa 0 mm - 5 W/m² -
1788442384 16.11° C 94% 1017.2 hPa 0 mm - 3 W/m² -
1788442084 16.67° C 94% 1017.3 hPa 0 mm - 2 W/m² -
1788441779 16.67° C 94% 1017.2 hPa 0 mm - 1 W/m² -
1788441474 16.67° C 94% 1017.2 hPa 0 mm - 0 W/m² -
1788441173 16.67° C 94% 1017.2 hPa 0 mm - 0 W/m² -
1788440868 16.67° C 94% 1017.2 hPa 0 mm - 0 W/m² -
1788440563 16.67° C 94% 1017.3 hPa 0 mm - 0 W/m² -
1788440261 16.67° C 93% 1017.2 hPa 0 mm - 0 W/m² -

* Rain latest hour (hover to see other rain measurements)
** Current wind speed in m/s (hover to see current wind gust speed)